• In Germany
  • List of Countries
  • For 7 days
  • Water Temperature
  • Satellite Maps
  • Weather Map
  • Weather Widgets
  • user-avatar
    Login

    Hourly Weather Kapan

    Today, 17 August, Thursday

    Time Temperature Precipitation Wind Pressure Humidity
    00:00 +22°C° 0.1 mm 1 mps 685 mmHg 61%
    01:00 +22°C° 0 mm 1 mps 684 mmHg 62%
    02:00 +21°C° 0 mm 1 mps 684 mmHg 63%
    03:00 +21°C° 0 mm 1 mps 684 mmHg 65%
    04:00 +21°C° 0 mm 1 mps 684 mmHg 63%
    05:00 +21°C° 0 mm 1 mps 684 mmHg 61%
    06:00 +22°C° 0 mm 1 mps 684 mmHg 59%
    07:00 +24°C° 0 mm 1 mps 684 mmHg 53%
    08:00 +26°C° 0 mm 2 mps 685 mmHg 46%
    09:00 +28°C° 0 mm 2 mps 686 mmHg 37%
    10:00 +29°C° 0 mm 2 mps 685 mmHg 34%
    11:00 +31°C° 0 mm 3 mps 685 mmHg 32%
    12:00 +33°C° 0 mm 3 mps 685 mmHg 29%
    13:00 +33°C° 0.1 mm 4 mps 685 mmHg 29%
    14:00 +34°C° 0.1 mm 4 mps 684 mmHg 29%
    15:00 +33°C° 0 mm 4 mps 684 mmHg 32%
    16:00 +32°C° 0.2 mm 4 mps 684 mmHg 35%
    17:00 +30°C° 0.2 mm 4 mps 684 mmHg 38%
    18:00 +29°C° 0.2 mm 3 mps 684 mmHg 41%
    19:00 +28°C° 0.1 mm 3 mps 684 mmHg 46%
    20:00 +26°C° 0.1 mm 3 mps 684 mmHg 50%
    21:00 +24°C° 0.1 mm 2 mps 684 mmHg 55%
    22:00 +24°C° 0 mm 2 mps 684 mmHg 58%
    23:00 +23°C° 0 mm 2 mps 683 mmHg 60%

    Tomorrow, 18 August, Friday

    Time Temperature Precipitation Wind Pressure Humidity
    00:00 +23°C° 0 mm 2 mps 683 mmHg 62%
    01:00 +21°C° 0 mm 2 mps 683 mmHg 63%
    02:00 +22°C° 0 mm 1 mps 683 mmHg 65%
    03:00 +22°C° 0 mm 1 mps 683 mmHg 66%
    04:00 +22°C° 0 mm 1 mps 683 mmHg 65%
    05:00 +22°C° 0 mm 1 mps 684 mmHg 64%
    06:00 +22°C° 0 mm 1 mps 684 mmHg 63%
    07:00 +24°C° 0 mm 1 mps 684 mmHg 56%
    08:00 +26°C° 0 mm 2 mps 685 mmHg 49%
    09:00 +28°C° 0 mm 2 mps 685 mmHg 42%
    10:00 +29°C° 0 mm 2 mps 685 mmHg 39%
    11:00 +31°C° 0 mm 3 mps 685 mmHg 35%
    12:00 +33°C° 0 mm 3 mps 685 mmHg 32%
    13:00 +33°C° 0 mm 3 mps 684 mmHg 31%
    14:00 +33°C° 0 mm 3 mps 684 mmHg 30%
    15:00 +34°C° 0 mm 3 mps 684 mmHg 30%
    16:00 +33°C° 0 mm 3 mps 684 mmHg 32%
    17:00 +31°C° 0 mm 3 mps 684 mmHg 34%
    18:00 +30°C° 0 mm 3 mps 684 mmHg 36%
    19:00 +28°C° 0 mm 3 mps 684 mmHg 40%
    20:00 +26°C° 0 mm 3 mps 684 mmHg 45%
    21:00 +25°C° 0 mm 2 mps 685 mmHg 49%
    22:00 +24°C° 0 mm 2 mps 685 mmHg 51%
    23:00 +23°C° 0 mm 2 mps 685 mmHg 54%

    Day after tomorrow, 19 August, Saturday

    Time Temperature Precipitation Wind Pressure Humidity
    00:00 +23°C° 0 mm 2 mps 685 mmHg 56%
    01:00 +21°C° 0 mm 2 mps 685 mmHg 58%
    02:00 +21°C° 0 mm 2 mps 685 mmHg 61%
    03:00 +21°C° 0 mm 2 mps 685 mmHg 63%
    04:00 +21°C° 0 mm 2 mps 685 mmHg 62%
    05:00 +21°C° 0 mm 2 mps 685 mmHg 62%
    06:00 +21°C° 0 mm 2 mps 686 mmHg 61%
    07:00 +24°C° 0 mm 2 mps 686 mmHg 52%
    08:00 +26°C° 0 mm 2 mps 687 mmHg 44%
    09:00 +28°C° 0 mm 3 mps 687 mmHg 36%
    10:00 +30°C° 0 mm 3 mps 687 mmHg 33%
    11:00 +31°C° 0 mm 3 mps 687 mmHg 29%
    12:00 +33°C° 0 mm 4 mps 687 mmHg 26%
    13:00 +33°C° 0 mm 4 mps 687 mmHg 25%
    14:00 +34°C° 0 mm 4 mps 686 mmHg 25%
    15:00 +34°C° 0 mm 4 mps 686 mmHg 24%
    16:00 +33°C° 0 mm 4 mps 686 mmHg 25%
    17:00 +32°C° 0 mm 4 mps 686 mmHg 27%
    18:00 +30°C° 0 mm 4 mps 686 mmHg 29%
    19:00 +28°C° 0 mm 3 mps 686 mmHg 32%
    20:00 +26°C° 0 mm 3 mps 686 mmHg 36%
    21:00 +24°C° 0 mm 2 mps 686 mmHg 40%
    22:00 +24°C° 0 mm 2 mps 686 mmHg 41%
    23:00 +23°C° 0 mm 2 mps 686 mmHg 42%

    20 August, Sunday

    Time Temperature Precipitation Wind Pressure Humidity
    00:00 +23°C° 0 mm 2 mps 686 mmHg 43%
    01:00 +23°C° 0 mm 2 mps 686 mmHg 43%
    02:00 +23°C° 0 mm 2 mps 686 mmHg 43%
    03:00 +21°C° 0 mm 2 mps 686 mmHg 43%
    04:00 +23°C° 0 mm 2 mps 686 mmHg 42%
    05:00 +23°C° 0 mm 2 mps 686 mmHg 42%
    06:00 +23°C° 0 mm 2 mps 687 mmHg 41%
    07:00 +25°C° 0 mm 2 mps 687 mmHg 36%
    08:00 +27°C° 0 mm 2 mps 687 mmHg 31%
    09:00 +29°C° 0 mm 2 mps 688 mmHg 26%
    10:00 +31°C° 0 mm 3 mps 687 mmHg 24%
    11:00 +33°C° 0 mm 3 mps 687 mmHg 22%
    12:00 +34°C° 0 mm 3 mps 687 mmHg 20%
    13:00 +34°C° 0 mm 4 mps 687 mmHg 20%
    14:00 +35°C° 0 mm 4 mps 686 mmHg 20%
    15:00 +35°C° 0 mm 4 mps 686 mmHg 20%
    16:00 +34°C° 0 mm 4 mps 686 mmHg 22%
    17:00 +33°C° 0 mm 4 mps 686 mmHg 24%
    18:00 +30°C° 0 mm 3 mps 685 mmHg 26%
    19:00 +29°C° 0 mm 3 mps 685 mmHg 29%
    20:00 +27°C° 0 mm 2 mps 686 mmHg 33%
    21:00 +25°C° 0 mm 2 mps 686 mmHg 36%
    22:00 +25°C° 0 mm 2 mps 686 mmHg 36%
    23:00 +24°C° 0 mm 2 mps 686 mmHg 37%

    21 August, Monday

    Time Temperature Precipitation Wind Pressure Humidity
    00:00 +24°C° 0 mm 2 mps 686 mmHg 37%
    01:00 +23°C° 0 mm 2 mps 685 mmHg 37%
    02:00 +23°C° 0 mm 2 mps 685 mmHg 37%
    03:00 +23°C° 0 mm 2 mps 685 mmHg 37%
    04:00 +23°C° 0 mm 2 mps 685 mmHg 36%
    05:00 +23°C° 0 mm 2 mps 686 mmHg 35%
    06:00 +23°C° 0 mm 2 mps 686 mmHg 34%
    07:00 +26°C° 0 mm 2 mps 686 mmHg 31%
    08:00 +28°C° 0 mm 2 mps 686 mmHg 27%
    09:00 +30°C° 0 mm 2 mps 687 mmHg 24%
    10:00 +31°C° 0 mm 3 mps 687 mmHg 23%
    11:00 +34°C° 0 mm 3 mps 686 mmHg 21%
    12:00 +35°C° 0 mm 3 mps 686 mmHg 20%
    13:00 +35°C° 0 mm 3 mps 686 mmHg 20%
    14:00 +35°C° 0 mm 3 mps 685 mmHg 20%
    15:00 +35°C° 0 mm 4 mps 685 mmHg 20%
    16:00 +34°C° 0 mm 3 mps 685 mmHg 23%
    17:00 +33°C° 0 mm 3 mps 685 mmHg 26%
    18:00 +31°C° 0 mm 3 mps 684 mmHg 29%
    19:00 +29°C° 0 mm 3 mps 684 mmHg 33%
    20:00 +27°C° 0 mm 2 mps 685 mmHg 38%
    21:00 +25°C° 0 mm 2 mps 685 mmHg 43%
    22:00 +25°C° 0 mm 2 mps 685 mmHg 44%
    23:00 +24°C° 0 mm 2 mps 685 mmHg 44%

    22 August, Tuesday

    Time Temperature Precipitation Wind Pressure Humidity
    00:00 +24°C° 0 mm 2 mps 685 mmHg 45%
    01:00 +24°C° 0 mm 2 mps 685 mmHg 45%
    02:00 +24°C° 0 mm 1 mps 684 mmHg 44%
    03:00 +23°C° 0 mm 1 mps 684 mmHg 43%
    04:00 +23°C° 0 mm 1 mps 685 mmHg 42%
    05:00 +24°C° 0 mm 1 mps 685 mmHg 41%
    06:00 +24°C° 0 mm 1 mps 685 mmHg 40%
    07:00 +26°C° 0 mm 1 mps 685 mmHg 35%
    08:00 +29°C° 0 mm 2 mps 686 mmHg 30%
    09:00 +31°C° 0 mm 2 mps 686 mmHg 24%
    10:00 +32°C° 0 mm 2 mps 686 mmHg 22%
    11:00 +35°C° 0 mm 3 mps 686 mmHg 20%
    12:00 +36°C° 0 mm 3 mps 685 mmHg 18%
    13:00 +36°C° 0 mm 3 mps 685 mmHg 18%
    14:00 +36°C° 0 mm 3 mps 684 mmHg 18%
    15:00 +37°C° 0 mm 3 mps 684 mmHg 19%
    16:00 +35°C° 0 mm 3 mps 684 mmHg 21%
    17:00 +34°C° 0 mm 3 mps 684 mmHg 24%
    18:00 +33°C° 0 mm 3 mps 683 mmHg 26%
    19:00 +30°C° 0 mm 3 mps 684 mmHg 30%
    20:00 +28°C° 0 mm 2 mps 684 mmHg 34%
    21:00 +26°C° 0 mm 2 mps 684 mmHg 39%
    22:00 +26°C° 0 mm 2 mps 684 mmHg 39%
    23:00 +25°C° 0 mm 2 mps 684 mmHg 39%
    Show more